Regional Weather Roundup
Issued by NWS

Home | Current Version | Previous Version | Text Only | Print | Product List | Glossary Off
Versions: 1 2 3 4 5 6 7 8 9 10 11 12 13 14 15 16 17 18 19 20 21 22 23 24 25 26 27 28 29 30 31 32 33 34 35 36 37 38 39 40 41 42 43 44 45 46 47 48 49 50

143
ASUS43 KDTX 010510
RWRMI
MICHIGAN HOURLY REGIONAL WEATHER ROUNDUP
NATIONAL WEATHER SERVICE DETROIT/PONTIAC MI
100 AM EDT MON MAY 01 2017

NOTE: "FAIR" INDICATES FEW OR NO CLOUDS BELOW 12,000 FEET WITH NO
SIGNIFICANT WEATHER AND/OR OBSTRUCTION TO VISIBILITY.

MIZ047>049-052>055-059>063-066>070-074>076-081>083-010600-
SOUTHEAST LOWER MICHIGAN

CITY           SKY/WX    TMP DP  RH WIND       PRES   REMARKS
ADRIAN         FOG       54  54 100 SE7       29.73S VSB 1/2
ALMA           CLOUDY    42  42 100 NE14      29.74F
ANN ARBOR      CLOUDY    54  54 100 E6        29.74S FOG
BAD AXE        RAIN      40  40 100 E6        29.76F
CARO           DRIZZLE   41  40  99 NE3       29.75S
DETROIT CITY   CLOUDY    51  51 100 E7        29.76F FOG
DETROIT        FOG       54  54 100 E6        29.75F VSB 1
FLINT          CLOUDY    45  44  97 N5        29.75S
GROSSE ILE     CLOUDY    53  52  97 E3        29.75F FOG
HILLSDALE      FOG       55  54  94 SE6       29.69F VSB 1/2
HOWELL         CLOUDY    48  47  95 E3        29.72F FOG

CITY           SKY/WX    TMP DP  RH WIND       PRES   REMARKS
JACKSON        CLOUDY    56  55  97 SE10      29.70F FOG
LAMBERTVILLE   FOG       55  54  98 E5        29.73F VSB 3/4
LANSING        CLOUDY    43  40  89 NE9       29.72F
LAPEER         CLOUDY    45  44  99 SE5       29.76S
MASON          CLOUDY    46  46  99 E7        29.70F FOG
MONROE         FOG       53  52  98 E9        29.74F VSB 1
MT. CLEMENS    CLOUDY    52  52 100 E8        29.75F
PONTIAC        CLOUDY    52  50  93 E9        29.74S
PORT HOPE        N/A     42  41  96 E16       29.77F
PORT HURON     LGT RAIN  45  43  93 E5        29.78F
TRI CITIES     LGT RAIN  44  43  96 NE10      29.77S
MIDLAND        RAIN      41  40  94 NE8       29.78F
TROY           CLOUDY    51  50  95 E5        29.78F FOG
SAGINAW HB     LGT RAIN  41  37  87 NE9       29.76S
$$
MIZ043>046-050>051-056>058-064>065-071>073-077>080-010600-
SOUTHWEST LOWER MICHIGAN

CITY           SKY/WX    TMP DP  RH WIND       PRES   REMARKS
BATTLE CREEK   CLOUDY    50  50 100 E6        29.67F FOG
BENTON HARBOR  CLOUDY    56  54  93 E10       29.56F FOG
BIG RAPIDS     MIX PCPN  38  37  93 E10G16    29.72F WCI  31
COLDWATER      CLOUDY    60  60 100 SE12G17   29.65F
FREMONT        LGT RAIN  40  40  97 E16G22    29.66F WCI  32
HOLLAND        CLOUDY    45  43  93 E14       29.63F
GRAND RAPIDS   CLOUDY    43  43 100 E14       29.67F
IONIA          CLOUDY    42  41  98 NE12G22   29.70F
KALAMAZOO      CLOUDY    51  49  92 VRB3      29.64F FOG
LUDINGTON      DRIZZLE   39  39  99 E12G17    29.66F WCI  32
MARSHALL       CLOUDY    54  54  99 E3        29.67F FOG
MOUNT PLEASANT CLOUDY    38  37  95 E8        29.76F WCI  33
MUSKEGON       LGT RAIN  43  41  93 E15G22    29.64F
SOUTH HAVEN    LGT RAIN  49  49  99 E13       29.58F
$$
MIZ016>042-010600-
NORTHERN LOWER MICHIGAN

CITY           SKY/WX    TMP DP  RH WIND       PRES   REMARKS
ALPENA         LGT RAIN  37  37 100 E10       29.86F WCI  30
BEAVER ISLAND  CLOUDY    38  36  94 E16G24    29.83F WCI  28
BELLAIRE       MIX PCPN  38  34  87 NE7       29.81F WCI  32
CADILLAC       FLURRIES  36  35  96 E12G18    29.74F WCI  28
CHARLEVOIX     DRIZZLE   38  36  89 E13       29.85F WCI  31
FRANKFORT      DRIZZLE   39  35  84 E9G18     29.74F WCI  33
GAYLORD        LGT RAIN  36  34  92 E8        29.80F WCI  30
GRAYLING       LGT RAIN  36  35  96 E10G17    29.81S WCI  28
HARBOR SPRINGS CLOUDY    37  37  97 E15G23    29.82F WCI  28
HOUGHTON LAKE  LGT RAIN  36  35  96 NE9       29.79F WCI  29
MANISTEE       LGT RAIN  39  38  96 E12       29.70F WCI  32
OSCODA         MIX PCPN  39  38  96 NE13      29.80F WCI  32
ROGERS CITY    CLOUDY    37  36  97 E15G21    29.87F FOG     WCI  28
TRAVERSE CITY  LGT RAIN  39  36  89 NE7       29.78F WCI  34
$$
MIZ007>008-015-010600-
EASTERN UPPER MICHIGAN

CITY           SKY/WX    TMP DP  RH WIND       PRES   REMARKS
KINROSS        CLOUDY    39  35  86 E12       29.89F WCI  32
MACKINAC ISLAN CLOUDY    37  37 100 E12G18    29.88S WCI  30
NEWBERRY       CLOUDY    38  37  95 E9G16     29.87F WCI  32
S. S. MARIE    CLOUDY    42  34  73 E12G17    29.90F
MUNISING         N/A     42  36  79 E9        29.84F
$$
MIZ004>006-011>014-085-010600-
CENTRAL UPPER MICHIGAN

CITY           SKY/WX    TMP DP  RH WIND       PRES   REMARKS
MANISTIQUE     CLOUDY    38  37  97 E12G20    29.83F WCI  30
ESCANABA       CLOUDY    39  36  89 E13G25    29.82F WCI  31
MENOMINEE      CLOUDY    38  35  89 E20G28    29.77F WCI  28
SAWYER-GWINN   CLOUDY    39  35  85 E10       29.82F WCI  32
$$
MIZ001>003-009>011-084-010600-
WESTERN UPPER MICHIGAN

CITY           SKY/WX    TMP DP  RH WIND       PRES   REMARKS
IRON MOUNTAIN  CLOUDY    38  33  82 E12G20    29.77F WCI  30
HOUGHTON       CLOUDY    40  26  57 E10       29.82F WCI  33
COPPER HARBOR    N/A     44  23  43 VRB7      29.86F
IRONWOOD       CLOUDY    41  28  60 E10       29.79S
$$

ABBREVIATIONS USED IN REMARKS
   TC - TEMPERATURE IN CELSIUS
  WCI - WIND CHILL INDEX
   HX - HEAT INDEX
  VSB - VISIBILITY





USA.gov is the U.S. government's official web portal to all federal, state and local government web resources and services.